SCP
0 0 0 0 0 0 0 0 0 0 0 0 0 0 0 0 0 0 0 0 0 0 0 0 0 0 0 0 0 0 0 0 0 0 0 0 0 0 0 0 0 0 0 0
0 0 0 0 0 0 0 0 0 0 0 0 0 0 0 0 0 0 0 0 0 0 0 0 0 0 0 0 0 0 0 0 0 0 0 0 0 0 0 0 0 0 0 0
0 0 0 0 0 0 0 0 0 0 0 0 0 0 0 0 0 0 0 0 0 0 0 0 0 0 0 0 0 0 0 0 0 0 0 0 0 0 0 0 0 0 0 0
0 0 0 0 0 0 0 0 0 0 0 0 0 0 0 0 0 0 0 0 0 0 0 0 0 0 0 0 0 0 0 0 0 0 0 0 0 0 0 0 0 0 0 0
0 0 0 0 0 0 0 0 0 0 0 0 0 0 0 0 0 0 0 0 0 0 0 0 0 0 0 0 0 0 0 0 0 0 0 0 0 0 0 0 0 0 0 0
0 0 0 0 0 0 0 0 0 0 0 0 0 0 0 0 0 0 0 0 0 0 0 0 0 0 0 0 0 0 0 0 0 0 0 0 0 0 0 0 0 0 0 0
0 0 0 0 0 0 0 0 0 0 0 0 0 0 0 0 0 0 0 0 0 0 0 0 0 0 0 0 0 0 0 0 0 0 0 0 0 0 0 0 0 0 0 0
0 0 0 0 0 0 0 0 0 0 0 0 0 0 0 0 0 0 0 0 0 0 0 0 0 0 0 0 0 0 0 0 0 0 0 0 0 0 0 0 0 0 0 0
0 0 0 0 0 0 0 0 0 0 0 0 0 0 0 0 0 0 0 0 0 0 0 0 0 0 0 0 0 0 0 0 0 0 0 0 0 0 0 0 0 0 0 0
0 0 0 0 0 0 0 0 0 0 0 0 0 0 0 0 0 0 0 0 0 0 0 0 0 0 0 0 0 0 0 0 0 0 0 0 0 0 0 0 0 0 0 0
0 0 0 0 0 0 0 0 0 0 0 0 0 0 0 0 0 0 0 0 0 0 0 0 0 0 0 0 0 0 0 0 0 0 0 0 0 0 0 0 0 0 0 0
0 0 0 0 0 0 0 0 0 0 0 0 0 0 0 0 0 0 0 0 0 0 0 0 0 0 0 0 0 0 0 0 0 0 0 0 0 0 0 0 0 0 0 0
0 0 0 0 0 0 0 0 0 0 0 0 0 0 0 0 0 0 0 0 0 0 0 -0 -0 0 0 0 0 0 0 0 0 0 0 0 0 0 0 0 0 0 0 0
0 0 0 0 0 0 0 0 0 0 0 0 0 0 0 0 0 0 0 0 0 0 0 0 0 0 0 -0 0 0 0 0 0 0 0 0 0 0 0 0 0 0 0 0
0 0 0 0 0 0 0 0 0 0 0 0 0 0 0 0 0 0 0 0 0 0 0 0 0 0 0 0 0 0 0 0 0 0 0 0 0 0 0 0 0 0 0 0
0 0 0 0 0 0 0 0 0 0 0 0 0 0 0 0 0 0 0 0 0 0 0 0 0 0 0 0 0 0 0 0 -0 -0 0 -0 0 0 0 0 0 0 0 0
0 0 0 0 0 0 0 0 0 0 0 0 0 0 0 0 0 0 0 0 0 0 0 0 0 0 0 0 0 0 0 0 0 -0 0 0 0 0 0 0 0 0 0 0
0 0 0 0 0 0 0 0 0 0 0 0 0 0 0 0 0 0 0 0 0 0 0 0 0 0 0 0 0 0 0 0 0 0 0 0 0 0 0 0 0 0 0 0
0 0 0 0 0 0 0 0 0 0 0 0 0 0 0 0 0 0 0 0 0 0 0 0 0 0 0 0 0 0 0 0 0 0 0 0 0 0 0 0 0 0 0 0
0 0 0 0 0 0 0 0 0 0 0 0 0 0 0 0 0 0 0 0 0 0 0 0 0 0 0 0 0 0 0 0 0 0 0 0 0 0 0 0 0 0 0 0
0 0 0 0 0 0 0 0 0 0 0 0 0 0 0 0 0 0 0 0 0 0 0 0 0 0 0 0 0 0 0 0 0 0 0 0 0 0 0 0 0 0 0 0
0 0 0 0 0 0 0 0 0 0 0 0 0 0 0 0 0 0 0 0 0 0 0 0 0 0 0 0 0 0 0 0 0 0 0 0 0 0 0 0 0 0 0 0
-0 -0 -0 -0 0 -0 0 -0 -0 0 0 -0 -0 -0 0 -0 -0 -0 -0 0 0 0 0 0 0 0 0 0 0 0 0 0 0 0 0 0 0 0 0 0 0 0 0 0
0 0 0 -0 0 -0 0 0 0 -0 -0 -0 -0 0 -0 -0 0 0 0 0 0 0 0 0 0 0 0 0 0 0 0 0 0 0 0 0 0 0 0 0 0 0 0 0
0 0 0 0 0 0 0 0 0 0 -0 0 0 0 0 0 0 0 0 0 0 0 0 0 0 0 0 0 0 0 0 0 0 0 0 0 0 0 0 0 0 0 0 0
0 0 0 0 0 0 -0 0 -0 0 0 0 0 0 0 0 0 0 0 0 0 0 0 0 0 0 0 0 0 0 0 0 0 0 0 0 0 0 0 0 0 0 0 0
Wind_Speed_500mb
11 17 29 34 31 17 14 11 11 6 5 2 9 17 11 11 14 18 22 22 21 21 21 18 17 20 24 29 32 33 33 33 40 47 49 52 53 52 54 54 55 54 54 56
10 26 15 10 17 26 23 22 14 6 7 2 1 13 10 10 13 20 21 22 23 22 20 20 18 16 12 14 21 27 33 33 33 37 41 45 48 50 50 49 50 47 45 46
17 4 15 15 19 25 25 33 28 12 8 7 4 7 3 15 29 28 29 23 28 30 29 28 26 25 21 18 15 15 19 26 28 29 30 33 37 40 44 45 47 45 46 44
10 3 15 14 21 23 25 6 19 25 13 12 6 5 5 12 24 35 33 35 34 35 36 36 32 30 30 28 23 20 15 10 17 19 23 24 26 27 24 30 36 40 40 38
9 12 13 11 10 17 5 17 16 7 15 12 10 6 7 10 17 20 28 32 33 35 39 47 47 43 38 32 29 26 23 18 16 9 7 12 15 19 23 25 30 32 35 39
6 3 5 4 7 4 25 20 18 11 4 13 22 16 4 4 9 16 23 29 30 34 37 42 48 50 49 44 42 40 37 33 30 25 19 15 16 18 20 24 27 27 29 31
11 6 5 7 15 8 4 24 6 4 7 15 5 8 11 12 15 12 15 24 28 31 36 44 48 48 47 46 44 43 44 45 41 38 35 32 29 26 25 26 28 28 29 30
20 11 10 8 4 15 16 18 9 15 10 8 2 12 10 10 7 7 14 20 26 32 35 41 42 42 41 39 37 34 33 34 34 33 31 29 27 28 29 30 31 32 34 36
12 7 3 7 2 8 11 8 4 12 4 6 14 9 6 2 5 9 20 27 29 30 35 36 37 38 37 37 37 36 33 31 30 29 27 25 24 24 25 27 29 32 35 37
4 12 5 3 3 13 3 10 6 1 12 8 9 13 15 19 12 15 23 26 26 29 35 32 36 36 35 35 34 33 35 35 35 32 31 31 30 29 29 30 32 34 36 39
6 4 6 6 5 6 8 9 7 6 2 6 10 8 20 20 14 18 16 16 20 24 27 28 29 32 33 33 34 34 34 34 35 37 38 37 36 34 34 36 38 41 43 46
6 8 10 7 5 4 4 5 4 7 8 2 2 9 24 18 11 10 7 14 19 23 26 26 27 29 32 34 35 36 37 37 39 40 41 42 44 44 44 44 44 47 50 53
3 4 10 7 3 5 3 6 8 10 3 6 5 9 17 1 16 8 12 19 24 27 29 27 27 34 34 34 32 31 33 36 40 44 47 48 50 50 50 50 52 54 56 59
5 7 3 10 7 4 9 10 13 11 6 11 2 20 12 12 18 15 20 24 25 22 28 31 36 40 43 43 42 41 40 42 43 44 46 48 50 52 55 56 57 58 59 61
6 9 10 15 10 6 7 11 10 7 10 9 13 14 20 7 4 10 14 18 17 22 31 39 44 48 50 51 52 53 55 57 57 57 56 56 54 53 53 53 55 57 58 58
6 6 4 5 10 11 4 6 7 6 5 3 7 6 6 10 7 11 15 12 7 22 37 46 57 57 58 60 62 62 62 62 63 62 62 61 59 56 54 52 51 51 52 52
6 9 2 4 8 4 4 8 12 5 6 7 8 6 5 7 6 12 16 13 9 28 45 52 51 55 55 57 57 58 61 62 62 62 61 59 58 56 55 54 54 52 51 49
6 6 5 4 2 5 4 2 5 5 8 10 6 9 14 3 8 15 10 10 22 37 46 48 51 52 50 50 54 56 57 59 58 56 56 58 59 58 56 54 51 48 46 45
14 7 7 3 3 7 7 7 9 9 3 8 11 16 5 4 6 6 5 16 34 44 47 48 47 47 50 53 54 55 56 56 56 58 59 58 57 55 53 50 48 47 44 42
13 16 5 4 5 9 1 7 6 7 6 14 21 11 8 17 16 17 14 36 44 41 42 41 43 47 48 48 48 50 52 54 56 57 55 53 51 48 45 44 43 42 42 41
5 5 5 5 3 11 15 14 5 5 4 27 17 5 11 13 24 29 39 40 40 39 40 39 38 38 40 43 45 47 48 49 49 47 45 43 43 42 42 41 41 40 39 38
6 9 6 5 4 13 19 12 10 5 18 25 16 19 24 22 36 41 41 38 37 37 39 38 38 39 40 39 41 42 40 38 35 35 36 37 36 36 36 37 38 38 37 36
6 9 4 16 9 7 35 11 30 23 20 14 22 30 24 36 44 40 39 39 42 40 38 38 39 40 41 40 35 28 24 24 25 27 29 31 34 35 37 39 40 40 39 39
9 13 6 3 14 39 31 45 39 33 33 40 36 25 33 44 42 40 43 43 42 40 38 38 38 35 32 25 18 15 17 20 23 26 29 32 36 40 40 39 40 41 42 40
7 25 11 11 30 29 41 42 39 47 38 28 29 34 41 37 40 41 42 39 39 38 37 36 31 23 17 13 13 14 17 20 25 32 38 42 44 45 44 42 42 42 41 40
23 16 15 14 22 15 10 12 24 21 28 30 36 41 34 37 41 40 39 37 36 33 29 26 22 18 15 15 16 19 23 29 35 38 41 45 49 51 52 53 49 41 40 40
Wind_Direction_500mb
181 201 202 203 207 211 164 142 157 112 68 227 220 256 278 336 319 319 337 339 348 352 352 343 325 303 283 275 271 266 262 265 256 257 260 263 266 269 271 274 276 276 276 276
168 223 205 200 198 186 199 198 192 115 63 257 55 278 332 347 28 30 19 18 17 22 22 15 17 12 348 306 289 277 264 259 258 257 266 271 271 274 276 279 279 280 281 282
204 108 170 165 166 190 198 216 219 216 113 87 284 238 73 82 50 48 44 42 37 34 30 33 33 30 25 17 359 329 287 266 260 259 261 265 270 274 279 283 285 289 289 288
218 75 174 168 179 199 204 192 165 153 168 233 330 235 122 73 60 51 44 46 43 40 43 48 45 41 36 34 27 24 16 311 274 269 266 272 278 283 287 290 293 297 294 291
148 170 148 178 180 182 174 163 152 166 198 190 210 255 120 138 61 57 48 46 43 45 46 53 55 52 47 42 39 37 31 29 31 10 302 284 292 294 294 299 300 296 297 297
113 85 169 119 92 133 134 113 85 78 101 230 222 211 140 94 113 86 66 52 42 43 46 53 56 57 56 53 51 50 47 45 40 33 27 13 353 339 327 321 321 319 317 314
151 120 119 130 106 108 154 150 125 151 212 252 128 166 64 110 92 70 53 52 47 44 48 46 47 48 49 51 50 47 45 46 43 43 43 39 32 23 15 4 357 353 348 343
167 170 177 156 168 176 177 196 183 190 195 169 136 185 124 91 21 47 66 63 55 47 44 44 42 41 40 39 38 36 30 23 22 22 20 16 9 4 358 352 346 342 339 337
152 109 24 48 35 173 171 181 92 103 91 174 143 80 102 180 68 85 71 60 49 40 42 40 36 32 30 28 25 22 22 20 13 9 4 358 351 342 336 329 323 317 316 316
135 117 24 83 50 45 177 132 135 41 156 184 164 171 160 177 110 97 66 53 46 37 35 33 30 28 25 22 18 12 9 7 5 3 2 1 355 349 343 337 331 326 321 316
114 92 102 184 31 152 141 178 76 87 12 161 151 125 136 126 99 87 72 52 39 29 24 24 21 18 16 13 10 9 6 5 1 359 357 354 350 348 345 341 338 335 332 327
24 91 106 77 354 342 68 97 102 207 170 61 26 112 136 105 109 113 82 39 28 23 19 17 13 12 8 5 0 358 357 357 357 354 349 346 342 340 338 335 331 328 325 323
137 38 116 111 52 3 110 123 109 88 42 170 177 128 164 16 20 110 39 15 12 13 17 17 21 15 9 7 0 356 351 348 344 341 338 337 334 332 329 326 325 324 323 323
70 73 64 170 97 114 157 156 167 149 158 152 171 127 187 327 312 357 7 7 6 17 18 19 8 4 359 355 349 344 338 336 334 332 330 326 323 321 320 320 320 320 319 319
62 95 84 76 52 72 98 144 156 164 151 195 141 138 176 253 43 353 342 352 13 18 11 1 352 345 339 335 333 331 330 330 330 331 331 329 326 323 320 317 316 315 315 316
28 105 99 69 34 29 100 114 128 160 181 163 167 248 140 69 21 5 349 329 329 352 345 341 335 327 324 324 324 324 325 325 327 328 329 329 327 326 324 323 322 321 319 318
53 133 88 119 359 348 266 215 198 161 197 154 185 131 81 81 63 330 308 307 313 333 331 327 324 321 316 317 318 320 321 323 325 326 326 327 328 328 327 328 327 327 326 324
102 82 21 108 298 203 53 124 53 261 252 191 128 148 147 187 288 292 268 260 322 317 318 317 315 313 312 312 312 314 318 321 322 322 323 323 324 325 326 327 328 328 328 328
34 113 92 136 201 322 241 211 189 186 176 145 183 155 154 315 313 272 254 285 311 310 308 308 308 307 307 309 312 314 317 319 321 323 324 325 327 329 330 332 333 333 332 331
59 61 80 139 188 207 119 133 173 155 253 169 157 163 0 350 310 312 277 290 305 303 301 299 298 300 303 306 309 312 314 317 319 320 322 324 326 328 331 333 334 334 333 332
38 26 116 156 240 275 233 161 133 165 151 163 174 233 297 278 274 289 298 302 303 304 305 305 303 303 304 306 308 310 313 316 318 319 322 323 325 327 329 330 330 333 334 334
180 149 177 129 189 262 160 121 213 164 144 171 238 278 285 277 295 303 305 307 309 310 307 305 304 304 306 308 310 313 316 319 323 326 328 330 332 334 335 334 333 333 335 337
223 199 185 203 217 238 196 224 196 173 179 284 280 297 276 293 299 300 301 302 304 304 303 304 304 304 306 310 314 320 328 333 337 338 338 337 337 336 334 332 329 327 327 328
227 187 232 178 230 233 232 231 241 245 259 288 287 270 288 295 296 297 300 302 301 302 302 300 299 301 303 307 315 325 335 340 341 340 338 334 330 328 327 326 325 324 323 322
205 160 197 257 274 268 258 247 259 252 274 263 265 281 291 285 288 292 294 294 295 297 298 298 297 293 286 285 297 313 324 327 328 325 323 322 322 321 321 321 322 320 319 317
194 206 204 226 225 230 264 209 284 266 257 262 275 284 278 284 289 290 292 295 297 295 292 286 279 274 273 283 294 306 313 315 316 318 318 319 318 317 317 316 315 315 314 310
Wind_Speed_850mb
11 17 29 34 31 17 14 11 11 6 5 2 9 17 11 11 14 18 22 22 21 21 21 18 17 20 24 29 32 33 33 33 40 47 49 52 53 52 54 54 55 54 54 56
10 26 15 10 17 26 23 22 14 6 7 2 1 13 10 10 13 20 21 22 23 22 20 20 18 16 12 14 21 27 33 33 33 37 41 45 48 50 50 49 50 47 45 46
17 4 15 15 19 25 25 33 28 12 8 7 4 7 3 15 29 28 29 23 28 30 29 28 26 25 21 18 15 15 19 26 28 29 30 33 37 40 44 45 47 45 46 44
10 3 15 14 21 23 25 6 19 25 13 12 6 5 5 12 24 35 33 35 34 35 36 36 32 30 30 28 23 20 15 10 17 19 23 24 26 27 24 30 36 40 40 38
9 12 13 11 10 17 5 17 16 7 15 12 10 6 7 10 17 20 28 32 33 35 39 47 47 43 38 32 29 26 23 18 16 9 7 12 15 19 23 25 30 32 35 39
6 3 5 4 7 4 25 20 18 11 4 13 22 16 4 4 9 16 23 29 30 34 37 42 48 50 49 44 42 40 37 33 30 25 19 15 16 18 20 24 27 27 29 31
11 6 5 7 15 8 4 24 6 4 7 15 5 8 11 12 15 12 15 24 28 31 36 44 48 48 47 46 44 43 44 45 41 38 35 32 29 26 25 26 28 28 29 30
20 11 10 8 4 15 16 18 9 15 10 8 2 12 10 10 7 7 14 20 26 32 35 41 42 42 41 39 37 34 33 34 34 33 31 29 27 28 29 30 31 32 34 36
12 7 3 7 2 8 11 8 4 12 4 6 14 9 6 2 5 9 20 27 29 30 35 36 37 38 37 37 37 36 33 31 30 29 27 25 24 24 25 27 29 32 35 37
4 12 5 3 3 13 3 10 6 1 12 8 9 13 15 19 12 15 23 26 26 29 35 32 36 36 35 35 34 33 35 35 35 32 31 31 30 29 29 30 32 34 36 39
6 4 6 6 5 6 8 9 7 6 2 6 10 8 20 20 14 18 16 16 20 24 27 28 29 32 33 33 34 34 34 34 35 37 38 37 36 34 34 36 38 41 43 46
6 8 10 7 5 4 4 5 4 7 8 2 2 9 24 18 11 10 7 14 19 23 26 26 27 29 32 34 35 36 37 37 39 40 41 42 44 44 44 44 44 47 50 53
3 4 10 7 3 5 3 6 8 10 3 6 5 9 17 1 16 8 12 19 24 27 29 27 27 34 34 34 32 31 33 36 40 44 47 48 50 50 50 50 52 54 56 59
5 7 3 10 7 4 9 10 13 11 6 11 2 20 12 12 18 15 20 24 25 22 28 31 36 40 43 43 42 41 40 42 43 44 46 48 50 52 55 56 57 58 59 61
6 9 10 15 10 6 7 11 10 7 10 9 13 14 20 7 4 10 14 18 17 22 31 39 44 48 50 51 52 53 55 57 57 57 56 56 54 53 53 53 55 57 58 58
6 6 4 5 10 11 4 6 7 6 5 3 7 6 6 10 7 11 15 12 7 22 37 46 57 57 58 60 62 62 62 62 63 62 62 61 59 56 54 52 51 51 52 52
6 9 2 4 8 4 4 8 12 5 6 7 8 6 5 7 6 12 16 13 9 28 45 52 51 55 55 57 57 58 61 62 62 62 61 59 58 56 55 54 54 52 51 49
6 6 5 4 2 5 4 2 5 5 8 10 6 9 14 3 8 15 10 10 22 37 46 48 51 52 50 50 54 56 57 59 58 56 56 58 59 58 56 54 51 48 46 45
14 7 7 3 3 7 7 7 9 9 3 8 11 16 5 4 6 6 5 16 34 44 47 48 47 47 50 53 54 55 56 56 56 58 59 58 57 55 53 50 48 47 44 42
13 16 5 4 5 9 1 7 6 7 6 14 21 11 8 17 16 17 14 36 44 41 42 41 43 47 48 48 48 50 52 54 56 57 55 53 51 48 45 44 43 42 42 41
5 5 5 5 3 11 15 14 5 5 4 27 17 5 11 13 24 29 39 40 40 39 40 39 38 38 40 43 45 47 48 49 49 47 45 43 43 42 42 41 41 40 39 38
6 9 6 5 4 13 19 12 10 5 18 25 16 19 24 22 36 41 41 38 37 37 39 38 38 39 40 39 41 42 40 38 35 35 36 37 36 36 36 37 38 38 37 36
6 9 4 16 9 7 35 11 30 23 20 14 22 30 24 36 44 40 39 39 42 40 38 38 39 40 41 40 35 28 24 24 25 27 29 31 34 35 37 39 40 40 39 39
9 13 6 3 14 39 31 45 39 33 33 40 36 25 33 44 42 40 43 43 42 40 38 38 38 35 32 25 18 15 17 20 23 26 29 32 36 40 40 39 40 41 42 40
7 25 11 11 30 29 41 42 39 47 38 28 29 34 41 37 40 41 42 39 39 38 37 36 31 23 17 13 13 14 17 20 25 32 38 42 44 45 44 42 42 42 41 40
23 16 15 14 22 15 10 12 24 21 28 30 36 41 34 37 41 40 39 37 36 33 29 26 22 18 15 15 16 19 23 29 35 38 41 45 49 51 52 53 49 41 40 40
Wind_Direction_850mb
181 201 202 203 207 211 164 142 157 112 68 227 220 256 278 336 319 319 337 339 348 352 352 343 325 303 283 275 271 266 262 265 256 257 260 263 266 269 271 274 276 276 276 276
168 223 205 200 198 186 199 198 192 115 63 257 55 278 332 347 28 30 19 18 17 22 22 15 17 12 348 306 289 277 264 259 258 257 266 271 271 274 276 279 279 280 281 282
204 108 170 165 166 190 198 216 219 216 113 87 284 238 73 82 50 48 44 42 37 34 30 33 33 30 25 17 359 329 287 266 260 259 261 265 270 274 279 283 285 289 289 288
218 75 174 168 179 199 204 192 165 153 168 233 330 235 122 73 60 51 44 46 43 40 43 48 45 41 36 34 27 24 16 311 274 269 266 272 278 283 287 290 293 297 294 291
148 170 148 178 180 182 174 163 152 166 198 190 210 255 120 138 61 57 48 46 43 45 46 53 55 52 47 42 39 37 31 29 31 10 302 284 292 294 294 299 300 296 297 297
113 85 169 119 92 133 134 113 85 78 101 230 222 211 140 94 113 86 66 52 42 43 46 53 56 57 56 53 51 50 47 45 40 33 27 13 353 339 327 321 321 319 317 314
151 120 119 130 106 108 154 150 125 151 212 252 128 166 64 110 92 70 53 52 47 44 48 46 47 48 49 51 50 47 45 46 43 43 43 39 32 23 15 4 357 353 348 343
167 170 177 156 168 176 177 196 183 190 195 169 136 185 124 91 21 47 66 63 55 47 44 44 42 41 40 39 38 36 30 23 22 22 20 16 9 4 358 352 346 342 339 337
152 109 24 48 35 173 171 181 92 103 91 174 143 80 102 180 68 85 71 60 49 40 42 40 36 32 30 28 25 22 22 20 13 9 4 358 351 342 336 329 323 317 316 316
135 117 24 83 50 45 177 132 135 41 156 184 164 171 160 177 110 97 66 53 46 37 35 33 30 28 25 22 18 12 9 7 5 3 2 1 355 349 343 337 331 326 321 316
114 92 102 184 31 152 141 178 76 87 12 161 151 125 136 126 99 87 72 52 39 29 24 24 21 18 16 13 10 9 6 5 1 359 357 354 350 348 345 341 338 335 332 327
24 91 106 77 354 342 68 97 102 207 170 61 26 112 136 105 109 113 82 39 28 23 19 17 13 12 8 5 0 358 357 357 357 354 349 346 342 340 338 335 331 328 325 323
137 38 116 111 52 3 110 123 109 88 42 170 177 128 164 16 20 110 39 15 12 13 17 17 21 15 9 7 0 356 351 348 344 341 338 337 334 332 329 326 325 324 323 323
70 73 64 170 97 114 157 156 167 149 158 152 171 127 187 327 312 357 7 7 6 17 18 19 8 4 359 355 349 344 338 336 334 332 330 326 323 321 320 320 320 320 319 319
62 95 84 76 52 72 98 144 156 164 151 195 141 138 176 253 43 353 342 352 13 18 11 1 352 345 339 335 333 331 330 330 330 331 331 329 326 323 320 317 316 315 315 316
28 105 99 69 34 29 100 114 128 160 181 163 167 248 140 69 21 5 349 329 329 352 345 341 335 327 324 324 324 324 325 325 327 328 329 329 327 326 324 323 322 321 319 318
53 133 88 119 359 348 266 215 198 161 197 154 185 131 81 81 63 330 308 307 313 333 331 327 324 321 316 317 318 320 321 323 325 326 326 327 328 328 327 328 327 327 326 324
102 82 21 108 298 203 53 124 53 261 252 191 128 148 147 187 288 292 268 260 322 317 318 317 315 313 312 312 312 314 318 321 322 322 323 323 324 325 326 327 328 328 328 328
34 113 92 136 201 322 241 211 189 186 176 145 183 155 154 315 313 272 254 285 311 310 308 308 308 307 307 309 312 314 317 319 321 323 324 325 327 329 330 332 333 333 332 331
59 61 80 139 188 207 119 133 173 155 253 169 157 163 0 350 310 312 277 290 305 303 301 299 298 300 303 306 309 312 314 317 319 320 322 324 326 328 331 333 334 334 333 332
38 26 116 156 240 275 233 161 133 165 151 163 174 233 297 278 274 289 298 302 303 304 305 305 303 303 304 306 308 310 313 316 318 319 322 323 325 327 329 330 330 333 334 334
180 149 177 129 189 262 160 121 213 164 144 171 238 278 285 277 295 303 305 307 309 310 307 305 304 304 306 308 310 313 316 319 323 326 328 330 332 334 335 334 333 333 335 337
223 199 185 203 217 238 196 224 196 173 179 284 280 297 276 293 299 300 301 302 304 304 303 304 304 304 306 310 314 320 328 333 337 338 338 337 337 336 334 332 329 327 327 328
227 187 232 178 230 233 232 231 241 245 259 288 287 270 288 295 296 297 300 302 301 302 302 300 299 301 303 307 315 325 335 340 341 340 338 334 330 328 327 326 325 324 323 322
205 160 197 257 274 268 258 247 259 252 274 263 265 281 291 285 288 292 294 294 295 297 298 298 297 293 286 285 297 313 324 327 328 325 323 322 322 321 321 321 322 320 319 317
194 206 204 226 225 230 264 209 284 266 257 262 275 284 278 284 289 290 292 295 297 295 292 286 279 274 273 283 294 306 313 315 316 318 318 319 318 317 317 316 315 315 314 310